Starlink 31460

operational
NORAD ID: 59008 Int'l Des: 2024-036 Owner: SPXS Country: US Constellation: starlink
LEOCIRCULAR

Starlink 31460について

説明を読み込み中...

リアルタイム位置

3D地球を読み込み中...

次回通過

高度履歴

Altitude vs Time

uPlot chart will show altitude changes over time

軌道要素

1 59008U 24036L 25257.48575740 .00000094 00000-0 15282-4 0 9993
2 59008 53.1610 176.7252 0001016 104.6569 255.4545 15.30192510 88349
Epoch: Sep 14, 2025 • Age: 20 hours

現在のステータス

高度 476.5 km
速度 7.63 km/s
衛星直下点 -1.17°S, 56.92°E
打ち上げ日 Feb 23, 2024
運用期間 1.5 years
タイプ internet

技術仕様

分類 Payload
質量 730.00 kg
乾燥質量 700.00 kg
総質量 730.00 kg
長さ 0.30 m
直径 4.10 m
スパン 29.00 m
形状 Box + pan
製造者 SPXS
バスタイプ Starlink V2M
フェーズステータス In Orbit
所有者/国 SPXS/US

大規模コンステレーション

Loading constellations...